| time (UTC) | temp F | wind direction | speed MPH | gust MPH | rain 1hr in | rain 24hr in | rain mn in | humidity % | barometer mb |
| 20260504021308 | 50 | 211 | 2.0 | 2.0 | 0.00 | 0.00 | 0.00 | 65 | 1009.8 |
| 20260504020805 | 50 | 220 | 3.0 | 3.0 | 0.00 | 0.00 | 0.00 | 67 | 1009.8 |
| 20260504020302 | 49 | 227 | 3.0 | 5.0 | 0.00 | 0.00 | 0.00 | 69 | 1010.1 |
| 20260504015757 | 49 | 215 | 3.0 | 3.0 | 0.00 | 0.00 | 0.00 | 69 | 1009.9 |
| 20260504015254 | 49 | 191 | 1.0 | 2.0 | 0.00 | 0.00 | 0.00 | 71 | 1009.8 |
| 20260504014750 | 49 | 219 | 3.0 | 3.0 | 0.00 | 0.00 | 0.00 | 69 | 1010.0 |
| 20260504014246 | 50 | 262 | 5.0 | 7.0 | 0.00 | 0.00 | 0.00 | 69 | 1010.3 |
| 20260504013744 | 51 | 270 | 7.0 | 8.0 | 0.00 | 0.00 | 0.00 | 64 | 1010.3 |
| 20260504013242 | 52 | 251 | 8.0 | 9.0 | 0.00 | 0.00 | 0.00 | 60 | 1010.2 |
| 20260504012738 | 52 | 271 | 5.0 | 6.0 | 0.00 | 0.00 | 0.00 | 56 | 1009.8 |
| 20260504012236 | 52 | 177 | 4.0 | 5.0 | 0.00 | 0.00 | 0.00 | 55 | 1009.8 |
| 20260504011732 | 52 | 260 | 5.0 | 5.0 | 0.00 | 0.00 | 0.00 | 55 | 1010.0 |
| 20260504011229 | 52 | 228 | 3.0 | 5.0 | 0.00 | 0.00 | 0.00 | 54 | 1009.7 |
| 20260504010725 | 53 | 249 | 4.0 | 5.0 | 0.00 | 0.00 | 0.00 | 53 | 1009.7 |
| 20260504010221 | 53 | 223 | 3.0 | 3.0 | 0.00 | 0.00 | 0.00 | 55 | 1009.7 |
| 20260504005718 | 53 | 260 | 5.0 | 6.0 | 0.00 | 0.00 | 0.00 | 54 | 1009.4 |
| 20260504005215 | 53 | 266 | 5.0 | 6.0 | 0.00 | 0.00 | 0.00 | 54 | 1009.5 |
| 20260504004713 | 53 | 262 | 7.0 | 8.0 | 0.00 | 0.00 | 0.00 | 52 | 1009.5 |
| 20260504004210 | 53 | 275 | 9.0 | 9.0 | 0.00 | 0.00 | 0.00 | 51 | 1009.6 |
| 20260504003706 | 53 | 265 | 8.0 | 9.0 | 0.00 | 0.00 | 0.00 | 51 | 1009.4 |
| 20260504003203 | 54 | 260 | 11.0 | 11.0 | 0.00 | 0.00 | 0.00 | 50 | 1009.4 |
| 20260504002700 | 54 | 269 | 13.0 | 16.0 | 0.00 | 0.00 | 0.00 | 49 | 1009.3 |
| 20260504002157 | 54 | 261 | 12.0 | 17.0 | 0.00 | 0.00 | 0.00 | 49 | 1009.1 |
| 20260504001655 | 54 | 258 | 7.0 | 8.0 | 0.00 | 0.00 | 0.00 | 49 | 1009.1 |
| 20260504001151 | 54 | 199 | 6.0 | 7.0 | 0.00 | 0.00 | 0.00 | 48 | 1008.9 |
| 20260504000648 | 54 | 259 | 4.0 | 6.0 | 0.00 | 0.00 | 0.00 | 47 | 1009.3 |
| 20260504000145 | 54 | 254 | 4.0 | 5.0 | 0.00 | 0.00 | 0.00 | 49 | 1009.0 |
| 20260503235643 | 54 | 253 | 3.0 | 3.0 | 0.00 | 0.00 | 0.00 | 47 | 1008.7 |
| 20260503235140 | 53 | 218 | 2.0 | 2.0 | 0.00 | 0.00 | 0.00 | 47 | 1009.0 |
| 20260503234638 | 53 | 214 | 3.0 | 5.0 | 0.00 | 0.00 | 0.00 | 47 | 1008.6 |
| 20260503234136 | 53 | 209 | 3.0 | 3.0 | 0.00 | 0.00 | 0.00 | 48 | 1008.8 |
| 20260503233632 | 53 | 222 | 2.0 | 2.0 | 0.00 | 0.00 | 0.00 | 48 | 1008.5 |
| 20260503233128 | 53 | 230 | 4.0 | 5.0 | 0.00 | 0.00 | 0.00 | 48 | 1009.1 |
| 20260503232625 | 53 | 266 | 7.0 | 8.0 | 0.00 | 0.00 | 0.00 | 48 | 1009.1 |
| 20260503232122 | 53 | 252 | 5.0 | 6.0 | 0.00 | 0.00 | 0.00 | 51 | 1009.2 |
| 20260503231620 | 53 | 257 | 3.0 | 5.0 | 0.00 | 0.00 | 0.00 | 50 | 1009.4 |
| 20260503231117 | 53 | 225 | 4.0 | 5.0 | 0.00 | 0.00 | 0.00 | 50 | 1009.3 |
| 20260503230614 | 53 | 249 | 4.0 | 5.0 | 0.00 | 0.00 | 0.00 | 52 | 1009.4 |
| 20260503230111 | 53 | 228 | 5.0 | 6.0 | 0.00 | 0.00 | 0.00 | 49 | 1009.5 |
| 20260503225608 | 53 | 247 | 5.0 | 6.0 | 0.00 | 0.00 | 0.00 | 48 | 1009.4 |
| 20260503225107 | 53 | 225 | 5.0 | 6.0 | 0.00 | 0.00 | 0.00 | 49 | 1009.2 |
| 20260503224605 | 53 | 169 | 1.0 | 2.0 | 0.00 | 0.00 | 0.00 | 49 | 1009.5 |
| 20260503224103 | 53 | 235 | 3.0 | 3.0 | 0.00 | 0.00 | 0.00 | 47 | 1009.1 |
| 20260503223601 | 53 | 214 | 2.0 | 2.0 | 0.00 | 0.00 | 0.00 | 46 | 1009.2 |
| 20260503223056 | 53 | 222 | 3.0 | 5.0 | 0.00 | 0.00 | 0.00 | 49 | 1009.2 |
| 20260503222554 | 53 | 221 | 3.0 | 3.0 | 0.00 | 0.00 | 0.00 | 47 | 1009.1 |
| 20260503222052 | 54 | 237 | 3.0 | 3.0 | 0.00 | 0.00 | 0.00 | 46 | 1008.9 |
| 20260503221550 | 54 | 198 | 2.0 | 2.0 | 0.00 | 0.00 | 0.00 | 48 | 1009.1 |
| 20260503221047 | 54 | 186 | 1.0 | 2.0 | 0.00 | 0.00 | 0.00 | 46 | 1008.9 |
| 20260503220543 | 55 | 199 | 1.0 | 2.0 | 0.00 | 0.00 | 0.00 | 48 | 1009.1 |
| 20260503220040 | 54 | 196 | 1.0 | 1.0 | 0.00 | 0.00 | 0.00 | 47 | 1009.1 |
| 20260503215537 | 54 | 225 | 2.0 | 2.0 | 0.00 | 0.00 | 0.00 | 46 | 1009.0 |
| 20260503215034 | 53 | 180 | 1.0 | 1.0 | 0.00 | 0.00 | 0.00 | 48 | 1009.2 |
| 20260503214533 | 53 | 202 | 1.0 | 1.0 | 0.00 | 0.00 | 0.00 | 47 | 1009.1 |
| 20260503214029 | 53 | 254 | 4.0 | 5.0 | 0.00 | 0.00 | 0.00 | 47 | 1009.2 |
| 20260503213528 | 53 | 214 | 2.0 | 2.0 | 0.00 | 0.00 | 0.00 | 47 | 1009.3 |
| 20260503213024 | 53 | 180 | 4.0 | 5.0 | 0.00 | 0.00 | 0.00 | 47 | 1009.2 |
| 20260503212521 | 52 | 234 | 4.0 | 5.0 | 0.00 | 0.00 | 0.00 | 47 | 1009.3 |
| 20260503212018 | 52 | 206 | 5.0 | 5.0 | 0.00 | 0.00 | 0.00 | 46 | 1009.2 |
| 20260503211515 | 52 | 238 | 3.0 | 3.0 | 0.00 | 0.00 | 0.00 | 48 | 1009.1 |
| 20260503211011 | 52 | 235 | 2.0 | 2.0 | 0.00 | 0.00 | 0.00 | 50 | 1009.2 |
| 20260503210508 | 52 | 261 | 4.0 | 5.0 | 0.00 | 0.00 | 0.00 | 46 | 1009.4 |
| 20260503210004 | 53 | 250 | 5.0 | 6.0 | 0.00 | 0.00 | 0.00 | 48 | 1009.1 |
| 20260503205501 | 53 | 268 | 5.0 | 7.0 | 0.00 | 0.00 | 0.00 | 46 | 1009.3 |
| 20260503204956 | 53 | 157 | 3.0 | 3.0 | 0.00 | 0.00 | 0.00 | 48 | 1009.2 |
| 20260503204454 | 52 | 182 | 1.0 | 2.0 | 0.00 | 0.00 | 0.00 | 51 | 1009.3 |
| 20260503203950 | 52 | 257 | 4.0 | 5.0 | 0.00 | 0.00 | 0.00 | 50 | 1009.2 |
| 20260503203448 | 52 | 231 | 3.0 | 3.0 | 0.00 | 0.00 | 0.00 | 50 | 1009.5 |
| 20260503202944 | 52 | 198 | 1.0 | 1.0 | 0.00 | 0.00 | 0.00 | 53 | 1009.7 |
| 20260503202443 | 51 | 226 | 2.0 | 3.0 | 0.00 | 0.00 | 0.00 | 52 | 1009.7 |
| 20260503201941 | 51 | 230 | 2.0 | 3.0 | 0.00 | 0.00 | 0.00 | 53 | 1009.7 |
| 20260503201438 | 51 | 274 | 5.0 | 6.0 | 0.00 | 0.00 | 0.00 | 51 | 1009.8 |
| 20260503200936 | 52 | 243 | 4.0 | 5.0 | 0.00 | 0.00 | 0.00 | 51 | 1009.8 |
| 20260503200432 | 52 | 254 | 6.0 | 8.0 | 0.00 | 0.00 | 0.00 | 51 | 1009.9 |
| 20260503195928 | 51 | 262 | 5.0 | 6.0 | 0.00 | 0.00 | 0.00 | 51 | 1009.8 |
| 20260503195426 | 51 | 269 | 7.0 | 8.0 | 0.00 | 0.00 | 0.00 | 50 | 1009.9 |
| 20260503194922 | 51 | 244 | 5.0 | 6.0 | 0.00 | 0.00 | 0.00 | 51 | 1010.2 |
| 20260503194419 | 51 | 251 | 4.0 | 5.0 | 0.00 | 0.00 | 0.00 | 50 | 1010.0 |
| 20260503193915 | 51 | 249 | 6.0 | 7.0 | 0.00 | 0.00 | 0.00 | 51 | 1010.2 |
| 20260503193410 | 51 | 245 | 3.0 | 3.0 | 0.00 | 0.00 | 0.00 | 52 | 1010.2 |
| 20260503192906 | 51 | 260 | 5.0 | 5.0 | 0.00 | 0.00 | 0.00 | 50 | 1010.2 |
| 20260503192403 | 51 | 252 | 5.0 | 6.0 | 0.00 | 0.00 | 0.00 | 51 | 1010.3 |
| 20260503191859 | 51 | 242 | 4.0 | 6.0 | 0.00 | 0.00 | 0.00 | 51 | 1010.0 |
| 20260503191356 | 51 | 213 | 2.0 | 2.0 | 0.00 | 0.00 | 0.00 | 49 | 1010.2 |
| 20260503190852 | 51 | 257 | 7.0 | 8.0 | 0.00 | 0.00 | 0.00 | 49 | 1010.2 |
| 20260503190350 | 51 | 240 | 3.0 | 3.0 | 0.00 | 0.00 | 0.00 | 52 | 1010.2 |
| 20260503185846 | 51 | 289 | 4.0 | 5.0 | 0.00 | 0.00 | 0.00 | 52 | 1010.3 |
| 20260503185343 | 51 | 228 | 2.0 | 2.0 | 0.00 | 0.00 | 0.00 | 50 | 1010.4 |
| 20260503184842 | 51 | 252 | 4.0 | 5.0 | 0.00 | 0.00 | 0.00 | 50 | 1010.1 |
| 20260503184339 | 51 | 215 | 3.0 | 3.0 | 0.00 | 0.00 | 0.00 | 51 | 1010.5 |
| 20260503183835 | 51 | 244 | 5.0 | 6.0 | 0.00 | 0.00 | 0.00 | 48 | 1010.4 |
| 20260503183332 | 51 | 250 | 5.0 | 5.0 | 0.00 | 0.00 | 0.00 | 49 | 1010.3 |
| 20260503182830 | 50 | 250 | 3.0 | 5.0 | 0.00 | 0.00 | 0.00 | 53 | 1010.5 |
| 20260503182329 | 50 | 193 | 4.0 | 5.0 | 0.00 | 0.00 | 0.00 | 51 | 1010.8 |
| 20260503181825 | 51 | 243 | 4.0 | 5.0 | 0.00 | 0.00 | 0.00 | 47 | 1010.8 |
| 20260503181322 | 51 | 240 | 5.0 | 6.0 | 0.00 | 0.00 | 0.00 | 50 | 1010.9 |
| 20260503180818 | 51 | 242 | 3.0 | 3.0 | 0.00 | 0.00 | 0.00 | 47 | 1010.7 |
| 20260503180317 | 50 | 234 | 4.0 | 5.0 | 0.00 | 0.00 | 0.00 | 46 | 1010.9 |
| 20260503175813 | 50 | 196 | 3.0 | 3.0 | 0.00 | 0.00 | 0.00 | 45 | 1011.1 |
| 20260503175311 | 51 | 216 | 5.0 | 6.0 | 0.00 | 0.00 | 0.00 | 45 | 1011.2 |
| 20260503174806 | 50 | 252 | 4.0 | 5.0 | 0.00 | 0.00 | 0.00 | 49 | 1011.2 |
| 20260503174305 | 50 | 240 | 3.0 | 3.0 | 0.00 | 0.00 | 0.00 | 45 | 1011.1 |
| 20260503173800 | 50 | 242 | 5.0 | 7.0 | 0.00 | 0.00 | 0.00 | 47 | 1011.2 |
| 20260503173255 | 50 | 253 | 4.0 | 5.0 | 0.00 | 0.00 | 0.00 | 46 | 1011.3 |
| 20260503172753 | 49 | 259 | 4.0 | 5.0 | 0.00 | 0.00 | 0.00 | 49 | 1011.1 |
| 20260503172250 | 48 | 252 | 3.0 | 5.0 | 0.00 | 0.00 | 0.00 | 47 | 1011.5 |
| 20260503171746 | 49 | 201 | 3.0 | 3.0 | 0.00 | 0.00 | 0.00 | 47 | 1011.2 |
| 20260503171243 | 49 | 215 | 3.0 | 3.0 | 0.00 | 0.00 | 0.00 | 46 | 1011.2 |
| 20260503170740 | 49 | 203 | 2.0 | 2.0 | 0.00 | 0.00 | 0.00 | 50 | 1011.3 |
| 20260503170237 | 48 | 212 | 2.0 | 3.0 | 0.00 | 0.00 | 0.00 | 45 | 1011.4 |
| 20260503160159 | 46 | 163 | 2.0 | 2.0 | 0.00 | 0.00 | 0.00 | 47 | 1012.3 |
| 20260503150629 | 46 | 203 | 3.0 | 3.0 | 0.00 | 0.00 | 0.00 | 49 | 1012.7 |
| 20260503150125 | 45 | 219 | 2.0 | 2.0 | 0.00 | 0.00 | 0.00 | 50 | 1012.9 |
| 20260503131019 | 40 | 177 | 2.0 | 2.0 | 0.00 | 0.00 | 0.00 | 72 | 1013.2 |
| 20260503130517 | 40 | 253 | 3.0 | 3.0 | 0.00 | 0.00 | 0.00 | 71 | 1013.2 |
| 20260503110407 | 36 | 184 | 1.0 | 2.0 | 0.00 | 0.00 | 0.00 | 84 | 1012.7 |
| 20260503090258 | 37 | 202 | 1.0 | 1.0 | 0.00 | 0.00 | 0.00 | 83 | 1012.4 |
| 20260503081225 | 37 | 203 | 1.0 | 1.0 | 0.00 | 0.00 | 0.00 | 82 | 1012.4 |
| 20260503080721 | 37 | 207 | 1.0 | 2.0 | 0.00 | 0.00 | 0.00 | 82 | 1012.6 |
| 20260503080218 | 37 | 212 | 1.0 | 2.0 | 0.00 | 0.00 | 0.00 | 82 | 1012.3 |
| 20260503072654 | 38 | 234 | 3.0 | 3.0 | 0.00 | 0.00 | 0.00 | 81 | 1012.4 |
| 20260503072151 | 38 | 208 | 2.0 | 2.0 | 0.00 | 0.00 | 0.00 | 81 | 1012.4 |
| 20260503071648 | 38 | 225 | 2.0 | 2.0 | 0.00 | 0.00 | 0.00 | 81 | 1012.4 |
| 20260503071145 | 38 | 215 | 3.0 | 3.0 | 0.00 | 0.00 | 0.00 | 81 | 1012.3 |
| 20260503070642 | 38 | 217 | 3.0 | 3.0 | 0.00 | 0.00 | 0.00 | 82 | 1012.4 |
| 20260503070140 | 38 | 235 | 2.0 | 3.0 | 0.00 | 0.00 | 0.00 | 82 | 1012.3 |
| 20260503060104 | 38 | 196 | 1.0 | 2.0 | 0.00 | 0.00 | 0.00 | 82 | 1012.6 |
| 20260503055055 | 38 | 213 | 2.0 | 2.0 | 0.00 | 0.00 | 0.00 | 82 | 1012.7 |
| 20260503054551 | 38 | 206 | 1.0 | 1.0 | 0.00 | 0.00 | 0.00 | 82 | 1012.6 |
| 20260503054049 | 38 | 215 | 2.0 | 2.0 | 0.00 | 0.00 | 0.00 | 82 | 1012.8 |
| 20260503053547 | 38 | 201 | 1.0 | 1.0 | 0.00 | 0.00 | 0.00 | 82 | 1012.7 |
| 20260503053044 | 38 | 190 | 1.0 | 1.0 | 0.00 | 0.00 | 0.00 | 82 | 1012.6 |
| 20260503052541 | 38 | 231 | 2.0 | 2.0 | 0.00 | 0.00 | 0.00 | 82 | 1012.5 |
| 20260503052037 | 38 | 193 | 1.0 | 1.0 | 0.00 | 0.00 | 0.00 | 82 | 1012.8 |
| 20260503051533 | 38 | 196 | 1.0 | 1.0 | 0.00 | 0.00 | 0.00 | 83 | 1013.0 |
| 20260503051031 | 38 | 205 | 1.0 | 1.0 | 0.00 | 0.00 | 0.00 | 83 | 1013.2 |
| 20260503050526 | 38 | 188 | 1.0 | 1.0 | 0.00 | 0.00 | 0.00 | 83 | 1013.1 |
| 20260503050024 | 38 | 191 | 1.0 | 1.0 | 0.00 | 0.00 | 0.00 | 83 | 1013.1 |
| 20260503045521 | 38 | 190 | 1.0 | 1.0 | 0.00 | 0.00 | 0.00 | 83 | 1013.0 |
| 20260503045018 | 38 | 195 | 1.0 | 1.0 | 0.00 | 0.00 | 0.00 | 83 | 1013.0 |
| 20260503044514 | 38 | 210 | 2.0 | 2.0 | 0.00 | 0.00 | 0.00 | 83 | 1013.1 |
| 20260503044012 | 38 | 201 | 2.0 | 2.0 | 0.00 | 0.00 | 0.00 | 83 | 1013.2 |
| 20260503043508 | 38 | 188 | 1.0 | 1.0 | 0.00 | 0.00 | 0.00 | 83 | 1013.1 |
| 20260503043004 | 38 | 184 | 1.0 | 1.0 | 0.00 | 0.00 | 0.00 | 83 | 1013.1 |
| 20260503042501 | 38 | 191 | 1.0 | 1.0 | 0.00 | 0.00 | 0.00 | 83 | 1013.3 |
| 20260503041958 | 38 | 192 | 1.0 | 1.0 | 0.00 | 0.00 | 0.00 | 83 | 1013.4 |
| 20260503041455 | 38 | 179 | 1.0 | 1.0 | 0.00 | 0.00 | 0.00 | 83 | 1013.4 |
| 20260503040953 | 38 | 179 | 0.0 | 0.0 | 0.00 | 0.00 | 0.00 | 83 | 1013.4 |
| 20260503040450 | 38 | 189 | 1.0 | 2.0 | 0.00 | 0.00 | 0.00 | 83 | 1013.4 |
| 20260503035947 | 38 | 182 | 0.0 | 1.0 | 0.00 | 0.00 | 0.00 | 83 | 1013.4 |
| 20260503035444 | 38 | 197 | 1.0 | 1.0 | 0.00 | 0.00 | 0.00 | 83 | 1013.5 |
| 20260503034941 | 38 | 182 | 1.0 | 1.0 | 0.00 | 0.00 | 0.00 | 83 | 1013.4 |
| 20260503034438 | 38 | 187 | 1.0 | 1.0 | 0.00 | 0.00 | 0.00 | 83 | 1013.4 |
| 20260503033935 | 38 | 185 | 1.0 | 1.0 | 0.00 | 0.00 | 0.00 | 83 | 1013.3 |
| 20260503033433 | 38 | 183 | 0.0 | 1.0 | 0.00 | 0.00 | 0.00 | 83 | 1013.3 |
| 20260503032931 | 38 | 199 | 1.0 | 1.0 | 0.00 | 0.00 | 0.00 | 83 | 1013.5 |
| 20260503032429 | 38 | 224 | 1.0 | 2.0 | 0.00 | 0.00 | 0.00 | 83 | 1013.4 |
| 20260503031926 | 38 | 191 | 1.0 | 1.0 | 0.00 | 0.00 | 0.00 | 83 | 1013.3 |
| 20260503031424 | 38 | 215 | 1.0 | 2.0 | 0.00 | 0.00 | 0.00 | 83 | 1013.5 |
| 20260503030920 | 38 | 206 | 1.0 | 2.0 | 0.00 | 0.00 | 0.00 | 83 | 1013.4 |
| 20260503030417 | 38 | 188 | 1.0 | 1.0 | 0.00 | 0.00 | 0.00 | 83 | 1013.6 |
| 20260503025914 | 38 | 178 | 1.0 | 1.0 | 0.00 | 0.00 | 0.00 | 83 | 1013.6 |
| 20260503025411 | 38 | 178 | 0.0 | 1.0 | 0.00 | 0.00 | 0.00 | 82 | 1013.6 |
| 20260503024908 | 38 | 177 | 0.0 | 1.0 | 0.00 | 0.00 | 0.00 | 82 | 1013.6 |
| 20260503024404 | 38 | 177 | 0.0 | 0.0 | 0.00 | 0.00 | 0.00 | 82 | 1013.6 |
| 20260503023901 | 38 | 177 | 0.0 | 0.0 | 0.00 | 0.00 | 0.00 | 81 | 1013.7 |
| 20260503023358 | 38 | 177 | 0.0 | 0.0 | 0.00 | 0.00 | 0.00 | 81 | 1013.6 |
| 20260503022855 | 38 | 177 | 0.0 | 0.0 | 0.00 | 0.00 | 0.00 | 81 | 1013.8 |
| 20260503022349 | 38 | 177 | 0.0 | 0.0 | 0.00 | 0.00 | 0.00 | 81 | 1013.9 |
| 20260503021846 | 38 | 177 | 0.0 | 0.0 | 0.00 | 0.00 | 0.00 | 82 | 1013.8 |